Content
SEND FEEDBACK

Daily
Averages
Monthly
Summary
Brazil

CUIABA, MATO GROSSO


Home > South America > Brazil > Mato Grosso
Elevation: 623 feet     Latitude: 15 38S     Longitude: 056 06W

WEATHER
 
SELECT A DAY
Number of Records: 172,441;   Date Range: 6/30/96 - 12/20/14
 
SHARE

PRINT THIS DATA

[ ← Previous Day ]
WEATHER ALMANAC - MARCH 13, 2013
[ Next Day → ]
[ °C ]   °F
Weather ElementAverageHighLow
Temperature83.3 °F95 °F (2:00 pm)73.4 °F (6:00 am)
Dewpoint70.2 °F71.6 °F (7:00 am)68 °F (12:00 pm)
Humidity65.4 %88 % (6:00 am)31 % (2:00 pm)
Barometer29.81 in29.89 in (9:00 am)29.71 in (5:00 pm)
Wind Speed5.9 mph15 mph (3:00 pm)
Weather ElementAverage
Visibility7.6 mi
Wind DirectionSSW (215.4 °)

Weather ElementTotal
Precipitation---
Cooling Degree Days19.2 (Base 65)
Growing Degree Days34.2 (Base 50)
Averaged from 27 records on March 13, 2013
WEATHER CONDITIONS BREAKOUT
WIND DIRECTION BREAKOUT
WEATHER BY HOUR - MARCH 13, 2013
[ °C ]   °F
Local TimeTemperatureDewpointHumidityBarometerVisibilityWind DirectionWind SpeedGust SpeedPrecipitationEventsConditions
1:00 AM75.2 °F69.8 °F83 %29.80 inCalmClear
2:00 AM75.0 °F70.0 °F79 %29.84 in12.0 miCalm
2:00 AM75.2 °F69.8 °F83 %29.83 inCalmClear
3:00 AM75.2 °F69.8 °F83 %29.83 inNorth (350°)2.3 mphClear
4:00 AM75.2 °F69.8 °F83 %29.83 inCalmPartly Cloudy
5:00 AM75.2 °F69.8 °F83 %29.83 inCalmPartly Cloudy
6:00 AM73.4 °F69.8 °F88 %29.80 inNorth (350°)3.5 mphClear
7:00 AM78.8 °F71.6 °F78 %29.83 inNNW (340°)3.5 mphClear
8:00 AM83.0 °F71.0 °F58 %29.84 in12.0 miNorth (350°)6.9 mph
8:00 AM84.2 °F69.8 °F62 %29.86 inNorth (350°)6.9 mphClear
9:00 AM87.8 °F71.6 °F58 %29.89 inNW (310°)8.1 mphClear
10:00 AM91.4 °F71.6 °F52 %29.86 inNNW (340°)8.1 mphClear
11:00 AM93.2 °F71.6 °F49 %29.86 in6.2 miNNW (330°)11.5 mphPartly Cloudy
12:00 PM93.2 °F68.0 °F44 %29.83 in6.2 miWest (270°)8.1 mphScattered Clouds
1:00 PM93.2 °F68.0 °F44 %29.77 in6.2 miNW (320°)11.5 mphMostly Cloudy
2:00 PM95.0 °F68.0 °F31 %29.73 in12.0 miNNW (340°)11.5 mphMostly Cloudy
2:00 PM95.0 °F68.0 °F41 %29.74 in6.2 miNNW (340°)11.5 mphMostly Cloudy
3:00 PM91.4 °F69.8 °F49 %29.74 in6.2 miSSW (210°)15.0 mphPartly Cloudy
4:00 PM87.8 °F71.6 °F58 %29.74 in6.2 miSouth (180°)10.4 mphPartly Cloudy
5:00 PM86.0 °F69.8 °F58 %29.71 in6.2 miENE (60°)4.6 mphScattered Clouds
6:00 PM82.4 °F69.8 °F66 %29.74 in6.2 miSSE (150°)1.2 mphScattered Clouds
7:00 PM82.4 °F69.8 °F66 %29.77 in6.2 miENE (70°)1.2 mphScattered Clouds
8:00 PM81.0 °F71.0 °F65 %29.81 in12.0 miSSW (200°)9.2 mphScattered Clouds
8:00 PM80.6 °F71.6 °F74 %29.83 in6.2 miSSW (200°)9.2 mphScattered Clouds
9:00 PM80.6 °F71.6 °F74 %29.86 in6.2 miSSW (200°)8.1 mphScattered Clouds
10:00 PM78.8 °F71.6 °F78 %29.86 in6.2 miSouth (170°)3.5 mphScattered Clouds
11:00 PM78.8 °F71.6 °F78 %29.86 in6.2 miSouth (170°)4.6 mphPartly Cloudy
Hourly data recorded from SBCY, located miles away from Cuiaba, Mato Grosso







STORIES FROM OUR PARTNERS